Flag for Belgium Weather past 2 weeks in Bruges, Belgium

Now
37 °F

Passing clouds.


Feels Like: 32 °F
Forecast: 48 / 54 °F
Wind: 7 mph from Southwest

Location: Oostende Airport

Current Time: Dec 21, 2014 at 6:42:50 AM

Latest Report: Dec 21, 2014 at 5:50 AM


Visibility: N/A

Pressure: 30.42 "Hg

Humidity: 100%

Dew point: 37 °F

Location of BrugesLocation

Historic Weather in Bruges — Graph

°F

Bruges temperature yesterday

Maximum temperature yesterday: 48 °F (at 11:50 AM)
Minimum temperature yesterday: 45 °F (at 3:20 AM)
Average temperature yesterday: 47 °F

Past Weeks' High & Low Weather Summary

 TemperatureHumidityPressure
High55 °F (Dec 18, 7:50 PM)100% (Dec 6, 10:50 PM)30.45 "Hg (Dec 6, 10:50 PM)
Low28 °F (Dec 14, 3:20 AM)61% (Dec 7, 8:50 PM)29.36 "Hg (Dec 12, 9:50 AM)
Average44 °F85%29.97 "Hg
* Reported Dec 6 5:20 AM — Dec 21 5:20 AM, Bruges, Weather by CustomWeather, © 2014

Note: Actual official high and low records may vary slightly from our data, if they occured in-between our weather recording intervals... More about our weather records

Advertising

Bruges weather history for previous 24 hours

 ConditionsComfort  
Time TempWeatherWind HumidityBarometerVisibility
5:20 AM
Dec 21
37 °FPassing clouds.8 mph100%30.42 "HgN/A
4:50 AM39 °FPassing clouds.9 mph93%30.42 "HgN/A
4:20 AM45 °FPassing clouds.13 mph87%30.42 "HgN/A
3:50 AM46 °FPassing clouds.12 mph82%30.45 "HgN/A
3:20 AM46 °FPassing clouds.13 mph82%30.45 "HgN/A
2:50 AM46 °FPassing clouds.13 mph82%30.45 "HgN/A
2:20 AM46 °FPassing clouds.13 mph82%30.45 "HgN/A
1:50 AM46 °FPassing clouds.15 mph82%30.42 "HgN/A
12:50 AM46 °FPassing clouds.16 mph82%30.42 "HgN/A
12:20 AM46 °FPassing clouds.17 mph82%30.42 "HgN/A
11:50 PM
Dec 20
46 °FPassing clouds.18 mph76%30.42 "HgN/A
11:20 PM46 °FPassing clouds.18 mph82%30.39 "HgN/A
10:50 PM46 °FPassing clouds.18 mph82%30.39 "HgN/A
10:20 PM48 °FPassing clouds.18 mph76%30.39 "HgN/A
9:50 PM48 °FPassing clouds.18 mph71%30.39 "HgN/A
9:20 PM48 °FPassing clouds.20 mph71%30.39 "HgN/A
8:50 PM48 °FPassing clouds.21 mph71%30.39 "HgN/A
8:20 PM48 °FPassing clouds.23 mph71%30.36 "HgN/A
7:50 PM48 °FPassing clouds.22 mph71%30.36 "HgN/A
7:20 PM48 °FPassing clouds.24 mph71%30.33 "HgN/A
6:50 PM48 °FPassing clouds.25 mph71%30.30 "HgN/A
6:20 PM48 °FPassing clouds.24 mph71%30.30 "HgN/A
5:50 PM48 °FPassing clouds.23 mph71%30.30 "HgN/A
5:20 PM48 °FPassing clouds.22 mph71%30.30 "HgN/A
4:50 PM48 °FPassing clouds.24 mph71%30.27 "HgN/A
4:20 PM48 °FScattered clouds.25 mph71%30.27 "HgN/A
3:50 PM48 °FScattered clouds.25 mph71%30.27 "HgN/A
3:20 PM48 °FScattered clouds.28 mph71%30.24 "HgN/A
2:50 PM48 °FPartly sunny.26 mph71%30.24 "HgN/A
2:20 PM48 °FPartly sunny.26 mph71%30.24 "HgN/A
1:50 PM48 °FPartly sunny.29 mph71%30.24 "HgN/A
1:20 PM48 °FPassing clouds.28 mph71%30.24 "HgN/A
12:50 PM48 °FPassing clouds.28 mph71%30.24 "HgN/A
12:20 PM48 °FPassing clouds.30 mph71%30.21 "HgN/A
11:50 AM48 °FPartly sunny.29 mph71%30.21 "HgN/A
11:20 AM46 °FPartly sunny.26 mph76%30.24 "HgN/A
10:50 AM46 °FPartly sunny.29 mph76%30.24 "HgN/A
10:20 AM46 °FPartly sunny.29 mph76%30.21 "HgN/A
9:50 AM46 °FPassing clouds.29 mph76%30.21 "HgN/A
9:20 AM46 °FPassing clouds.26 mph76%30.21 "HgN/A
8:50 AM46 °FPassing clouds.26 mph71%30.21 "HgN/A
8:20 AM46 °FPassing clouds.25 mph71%30.21 "HgN/A
7:50 AM46 °FPassing clouds.29 mph71%30.21 "HgN/A
7:20 AM46 °FPassing clouds.29 mph71%30.21 "HgN/A
6:50 AM46 °FPassing clouds.26 mph71%30.21 "HgN/A
6:20 AM46 °FPassing clouds.25 mph76%30.21 "HgN/A
Weather by CustomWeather, © 2014

See weather overviewHow to use our weather pages